Location: Bluff Heights
(33.7692°N, 118.1592°W)
Time: 10:16:38
(UTC+00:00)

Tiros 1 - Pass Details

Date: 27 July 2021
Orbit: 630 x 663 km, 48.4° (Epoch: 22 September)

Event Time Altitude Azimuth Distance (km) Brightness Sun altitude
Rises 02:57:08 0° 226° (SW) 2,972 10.9 -0.8°
Reaches altitude 10° 02:59:28 10° 225° (SW) 2,059 10.1 -1.2°
Maximum altitude 03:04:13 79° 140° (SE) 668 7.2 -2.1°
Drops below altitude 10° 03:08:57 10° 54° (NE) 2,049 9.5 -3.0°
Sets 03:11:17 0° 53° (NE) 2,955 10.3 -3.5°
